Regional Weather Roundup
Issued by NWS Charleston, SC

Current Version | Previous Version | Text Only | Print | Product List | Glossary Off
Versions: 1 2 3 4 5 6 7 8 9 10 11 12 13 14 15 16 17 18 19 20 21 22 23 24 25 26 27 28 29 30 31 32 33 34 35 36 37 38 39 40 41 42 43 44 45 46 47 48 49 50

000
ASUS42 KCHS 271226
RWRCHS

REGIONAL WEATHER ROUNDUP
NATIONAL WEATHER SERVICE CHARLESTON SC
800 AM EDT MON APR 27 2015

NOTE: "FAIR" INDICATES FEW OR NO CLOUDS BELOW 12,000 FEET WITH NO
SIGNIFICANT WEATHER AND/OR OBSTRUCTIONS TO VISIBILITY.

NOT ALL STATIONS ARE QUALITY CONTROLLED BY THE NATIONAL
WEATHER SERVICE. USE DATA WITH CAUTION...ESPECIALLY
DEWPOINT OBSERVATIONS.

SCZ027-030-031-034>040-042>050-271300-
...SOUTHEAST SOUTH CAROLINA...

CITY           SKY/WX    TMP DP  RH WIND       PRES   REMARKS
N CHARLESTON   PTSUNNY   54  49  83 N5        29.81R
6HR MIN TEMP:  52; 6HR MAX TEMP:  56;

WATERFRONT PRK   N/A     55 N/A N/A N12         N/A
MOUNT PLEASANT PTSUNNY   54  50  87 MISG      29.81S
PINOPOLIS      NOT AVBL
MONCKS CORNER  CLOUDY    55  48  76 NE5       29.82R
SUMMERVILLE    CLOUDY    54  52  94 N5        29.83S
BEAUFORT MCAS  PTSUNNY   56  50  80 N10       29.83R
6HR MIN TEMP:  56; 6HR MAX TEMP:  63;

BEAUFORT ARPT  CLOUDY    55  54  94 CALM      29.81R
HILTON HEAD IS CLOUDY    59  55  88 N7        29.83R
WALTERBORO     PTSUNNY   54  50  87 NW6       29.83S
ALLENDALE      FAIR      55  52  88 N5        29.83R

...SOUTHERN MIDLANDS AND PEE DEE...

CITY           SKY/WX    TMP DP  RH WIND       PRES   REMARKS
GEORGETOWN     NOT AVBL
KINGSTREE      NOT AVBL
ORANGEBURG     PTSUNNY   54  48  80 N5        29.83R
6HR MIN TEMP:  52; 6HR MAX TEMP:  54;

BARNWELL       FAIR      55  52  88 N3        29.85R
AIKEN          CLOUDY    52  46  82 N3        29.87R
MANNING        FAIR      52  37  58 N7        29.83R
COLUMBIA       MOSUNNY   55  47  74 N6        29.83R
6HR MIN TEMP:  53; 6HR MAX TEMP:  55;

SUMTER         MOSUNNY   53  48  83 N8        29.81R
6HR MIN TEMP:  51; 6HR MAX TEMP:  53;

FLORENCE       SUNNY     52  48  86 N6        29.82R
6HR MIN TEMP:  48; 6HR MAX TEMP:  53;

MYRTLE BEACH   SUNNY     54  46  76 N12       29.81R
N MYRTLE BEACH SUNNY     52  49  89 N7        29.79R
6HR MIN TEMP:  50; 6HR MAX TEMP:  53;


$$

GAZ063-065-086>088-099>101-113>116-118-119-134>141-150-271300-
...SOUTHEAST GEORGIA...

CITY           SKY/WX    TMP DP  RH WIND       PRES   REMARKS
SAVANNAH ARPT  CLOUDY    58  54  86 N10       29.82R
6HR MIN TEMP:  58; 6HR MAX TEMP:  65;

HUNTER AAF     CLOUDY    60  58  93 N9        29.79R
6HR MIN TEMP:  59; 6HR MAX TEMP:  68;

FORT STEWART   CLOUDY    61  57  88 N10       29.80R
6HR MIN TEMP:  60; 6HR MAX TEMP:  72;

STATESBORO       N/A     56  52  85 N7        29.84R
SYLVANIA       MOSUNNY   56  53  89 NE5       29.84S
CLAXTON        CLOUDY    59  55  88 N5        29.83R

...CSRA...CENTRAL AND FAR SOUTHEAST GEORGIA...

CITY           SKY/WX    TMP DP  RH WIND       PRES   REMARKS
THOMSON        CLOUDY    56  55  95 CALM      29.89R
AUGUSTA-BUSH   PTSUNNY   55  50  83 CALM      29.84R
6HR MIN TEMP:  51; 6HR MAX TEMP:  57; 6HR PCP: TRACE;

AUGUSTA-DANIEL CLOUDY    55  49  80 N6        29.84R
SWAINSBORO     NOT AVBL
VIDALIA        CLOUDY    59  55  88 N6        29.84R
EASTMAN        FAIR      58  58  99 NE6       29.88R
HAZLEHURST       N/A     61  58  91 N5        29.82R
ALMA           CLOUDY    63  59  87 VRB5      29.81R
6HR MIN TEMP:  63; 6HR MAX TEMP:  72;

WAYCROSS       CLOUDY    67  65  91 N3        29.81R
JESUP          CLOUDY    66  63  88 NE6       29.81R
BAXLEY         CLOUDY    63  59  88 N5        29.82R
BRUNSWICK      CLOUDY    68  63  83 NE5       29.81R
SAINT SIMONS   CLOUDY    67  62  84 NE8       29.80R
6HR MIN TEMP:  67; 6HR MAX TEMP:  73;


$$

SCZ027-028-034-036>038-045-046-048>050-GAZ119-141-271300-
...LAKE AND SUPPLEMENTAL COASTAL OBSERVATIONS...

STATION/POSITION TIME  TEMP    WIND        PRES    WAVE   SWELL
                       AIR SEA DIR/SP/G            HT/PER HT/PER/DIR
                 (UTC) (F)     (DEG/KT/KT) (MB)    (FT/S) (FT/S/D)
UPR LAKE MARION  NOT AVBL
WINYAH BAY       1100   51     330/  4     1007.0R
LAKE MURRAY      1100   53     300/  2/  5 1009.1R
ACE BASIN NERRS  NOT AVBL
FORT PULASKI     1200   58 70  360/ 10/ 13 1009.8R
SAPELO ISLAND    1200   66      40/  7     1008.0S

$$

ANZ835-935-AMZ111-154-330-350-352-354-370-450-454-472-271300-
...C-MAN AND BUOY OBSERVATIONS...

STATION/POSITION TIME  TEMP    WIND        PRES    WAVE   SWELL
                       AIR SEA DIR/SP/G            HT/PER HT/PER/DIR
                 (UTC) (F)     (DEG/KT/KT) (MB)    (FT/S) (FT/S/D)
BUOY 41004       1150   62 71  360/ 12/ 16 1007.6R   4/ 6   2/ 8
BUOY 41008       1150   65 70   40/ 14/ 16 1008.3R   4/ 6
FOLLY BEACH CMAN 1200   54      10/ 11/ 13 1009.4R
CAPERS NEARSHORE 1108   56      10/ 14/ 19 1008.9R
FRIPP NEARSHORE  1100   58      10/ 12/ 16 1008.4R


STATION/POSITION TIME  TEMP    WIND        PRES    WAVE   SWELL
                       AIR SEA DIR/SP/G            HT/PER HT/PER/DIR
                 (UTC) (F)     (DEG/KT/KT) (MB)    (FT/S) (FT/S/D)
5E ST. MARYS GA  1121      70                N/A     1/ 2
FRYING PAN BUOY  1150   60 71   10/ 12/ 14 1007.9R   4/ 9   2/ 80/ 9
BUOY 41025       1150   59 74  360/ 19/ 23 1006.3R   6/ 8   5/ 80/ 8
CAPE LOOKOUT NC  1200   54     340/ 13/ 15 1007.5R
BUOY 41002       1150   67 70  360/  6/  8 1005.1R   6/ 8   7/310/ 8
BUOY 41010       1120   80 79  280/ 16/ 17 1006.0R
ST AUGUSTINE FL  1200   74 68  280/  6/  9 1008.5R


$$


USA.gov is the U.S. government's official web portal to all federal, state and local government web resources and services.